#timestamp,LO_Frequency,Hit 
1502902815.7,286046999.0,N
1502902835.5,286047001.2,N
1502902855.3,286046999.1,N
1502902875.2,286046996.7,N
1502902895.0,286046996.8,N
1502902895.9,286046996.8,N
1502902915.7,286046996.8,N
1502902935.6,286046997.6,N
1502902955.4,286046997.3,N
1502902975.3,286046997.1,N
1502902995.1,286046997.1,N
1502902996.0,286046997.1,N
1502903015.8,286046997.1,N
1502903035.7,286046997.3,N
1502903055.5,286046996.7,N
1502903075.3,286046999.6,N
1502903095.2,286046999.4,N
1502903115.0,286046998.4,N
1502903115.9,286046998.4,N
1502903135.7,286046999.3,N
1502903155.6,286047001.1,N
1502903175.4,286047000.9,N
1502903195.3,286046998.3,N
1502903215.1,286046998.8,N
1502903216.0,286046998.8,N
1502903235.8,286046998.4,N
1502903255.7,286047000.9,N
1502903275.5,286046998.2,N
1502903295.3,286046998.6,N
1502903315.2,286047001.1,N
1502903335.9,286046998.1,N
1502903355.7,286047000.7,N
1502903375.6,286047002.7,N
1502903395.4,286047002.4,N
1502903415.2,286047002.4,N
1502903435.1,286047000.3,N
1502903436.0,286047000.3,N
1502903455.8,286047000.9,N
1502903475.7,286047000.2,N
1502903495.5,286047000.6,N
1502903515.3,286047000.6,N
1502903535.2,286047000.0,N
1502903555.9,286047000.1,N
1502903575.7,286047000.6,N
1502903595.6,286047002.1,N
1502903615.4,286046999.8,N
1502903635.2,286046999.7,N
1502903655.1,286047002.5,N
1502903656.0,286047002.5,N
1502903675.8,286046999.9,N
1502903695.6,286047000.1,N
1502903715.5,286047004.1,P
1502903735.3,286047001.6,N
1502903755.2,286047002.7,N
1502903775.9,286046999.7,N
1502903795.7,286047002.6,N
1502903815.6,286047002.3,N
1502903835.4,286047000.3,N
1502903855.2,286047004.1,N
1502903875.1,286047004.4,N
1502903876.0,286047004.4,N
1502903895.8,286047002.4,N
1502903915.6,286046999.9,N
1502903935.5,286047002.4,N
1502903955.3,286046999.7,N
1502903975.1,286046999.9,N
1502903995.9,286047001.9,N
1502904015.7,286047002.6,N
1502904035.5,286046999.9,N
1502904055.4,286046999.8,N
1502904075.2,286047001.4,N
1502904095.1,286047003.8,N
1502904096.0,286047003.8,N
1502904115.8,286047004.2,N
1502904135.6,286047003.1,N
1502904155.5,286047004.3,N
1502904175.3,286047002.7,N
1502904195.1,286047002.1,N
1502904215.9,286047000.0,N
1502904235.7,286047004.3,N
1502904255.5,286047002.6,N
1502904275.4,286047002.8,N
1502904295.2,286046999.8,N
1502904315.0,286047002.4,N
1502904316.0,286047002.4,N
1502904335.8,286046999.8,N
1502904355.6,286046999.7,N
1502904375.5,286047002.7,N
1502904395.3,286047002.6,N
1502904415.1,286047002.5,N
1502904435.9,286047002.8,N
1502904455.7,286047004.0,N
1502904475.5,286047002.8,N
1502904495.4,286047002.9,N
1502904515.2,286047002.5,N
1502904535.0,286047002.3,N
1502904535.9,286047002.3,N
1502904555.8,286047004.1,N
1502904575.6,286047003.0,N
1502904595.5,286047001.9,N
1502904615.3,286047001.4,N
1502904635.1,286047001.7,N
1502904655.9,286047000.5,N
1502904675.7,286047002.6,N
1502904695.5,286047000.9,N
1502904715.4,286047002.0,N
1502904735.2,286047002.6,N
1502904755.0,286047003.5,N
1502904755.9,286047003.5,N
1502904775.8,286047003.5,N
1502904795.6,286047001.7,N
1502904815.4,286046999.8,N
1502904835.3,286047000.2,N
1502904855.1,286047000.2,N
1502904875.9,286047000.1,N
1502904895.7,286046999.8,N
1502904915.5,286047000.2,N
1502904935.4,286046999.8,N
1502904955.2,286047000.2,N
1502904975.0,286047002.5,N
1502904975.9,286047002.5,N
1502904995.8,286047000.5,N
1502905015.6,286047001.0,N
1502905035.4,286047000.5,N
1502905055.3,286047001.3,N
1502905075.1,286047002.6,N
1502905095.9,286047003.1,N
1502905115.7,286047001.9,N
1502905135.5,286047002.6,N
1502905155.4,286047001.4,N
1502905175.2,286047004.4,P
1502905195.0,286047000.0,N
1502905195.9,286047000.0,N
1502905215.8,286047001.1,N
1502905235.6,286047002.7,N
1502905255.4,286047000.5,N
1502905275.3,286047000.6,N
1502905295.1,286047000.0,N
1502905315.9,286047002.7,N
1502905335.7,286047001.6,N
1502905355.5,286047000.3,N
1502905375.4,286047000.2,N
1502905395.2,286047002.1,N
1502905415.0,286046999.7,N
1502905415.9,286046999.7,N
1502905435.8,286046999.9,N
1502905455.6,286047000.3,N
1502905475.4,286047002.8,N
1502905495.3,286047002.1,N
1502905515.1,286047002.4,N
1502905535.8,286047002.3,N
1502905555.7,286047002.8,N
1502905575.5,286046999.7,N
1502905595.4,286047002.8,N
1502905615.2,286047002.0,N
1502905635.0,286047001.3,N
1502905635.9,286047001.3,N
1502905655.8,286047001.5,N
1502905675.6,286047004.1,P
1502905695.4,286047000.1,N
1502905715.3,286047002.3,N
1502905735.1,286047002.3,N
1502905755.8,286047000.5,N
1502905775.7,286047002.3,N
1502905795.5,286047002.2,N
1502905815.4,286047000.2,N
1502905835.2,286047001.1,N
1502905855.0,286047000.4,N
1502905855.9,286047000.4,N
1502905875.8,286047000.4,N
1502905895.6,286047000.8,N
1502905915.4,286047000.4,N
1502905935.3,286047000.0,N
1502905955.1,286047000.0,N
1502905975.8,286047000.6,N
1502905995.7,286047000.5,N
1502906015.5,286047000.9,N
1502906035.3,286047000.3,N
1502906055.2,286047000.9,N
1502906075.0,286047000.0,N
1502906075.9,286047000.0,N
1502906095.8,286046999.9,N
1502906115.6,286047000.5,N
1502906135.4,286047000.9,N
1502906155.3,286047002.7,N
1502906175.1,286047000.4,N
1502906176.0,286047000.4,N
1502906195.8,286047002.5,N
1502906215.7,286047000.7,N
1502906235.5,286047000.5,N
1502906255.3,286046999.7,N
1502906275.2,286047000.3,N
1502906295.0,286047000.7,N
1502906295.9,286047000.7,N
1502906315.8,286047000.6,N
1502906335.6,286047000.1,N
1502906355.4,286046999.8,N
1502906375.3,286047002.8,P
1502906395.1,286047000.5,N
